[[{"header":{"parameterUnit":"m.s-1","parameterCategory":1,"la1":30.2991,"la2":30.254,"lo1":-89.0895,"lo2":-89.0444,"dy":0.0017,"dx":0.0017,"nx":28,"ny":28,"refTime":"2025-08-13T09:00:00:Z","depth":0,"parameterNumber":2,"parameterNumberName":"U-component_of_WINDS"},"data":[0,0,0,0,0,0,0,0,0,0,0,0,0,0,0,0,0,0,0,0,0,0,0,0,0,0,0,0,0,0,0,0,0,0,0,0,0,0,0,0,0,0,0,0,0,0,0,0,0,0,0,0,0,0,0,0,0,0,3.417,3.4171,0,3.4263,3.4264,3.4265,3.4192,3.4189,3.4185,3.4182,3.4279,3.4284,3.429,0,0,0,0,0,0,0,0,0,0,0,0,0,3.3928,3.3933,3.417,3.4171,3.4172,3.4263,3.4264,3.4265,3.4192,3.4188,3.4185,3.4181,3.4277,3.4284,3.429,0,0,0,0,0,0,0,0,0,0,0,0,0,3.4028,3.3934,3.417,3.4146,3.4145,3.4263,3.4264,3.4266,3.4193,3.4188,3.4184,3.4179,3.4275,3.4283,3.4291,3.4437,0,0,3.4316,3.432,0,0,0,0,0,0,0,0,3.4023,3.4037,3.4149,3.4148,3.4147,3.4211,3.4214,3.4323,3.4194,3.4175,3.4182,3.4177,3.426,3.4269,3.4297,3.4441,3.4445,3.4317,3.4322,3.4326,3.4328,0,0,0,0,0,0,0,3.4016,3.4033,3.4207,3.415,3.415,3.4131,3.414,3.4234,3.4243,3.4176,3.4171,3.4183,3.4259,3.429,3.4299,3.4447,3.4317,3.4324,3.4329,3.4333,3.4711,3.4716,0,0,0,0,0,0,3.4011,3.4027,3.4204,3.4209,3.4072,3.4139,3.415,3.4195,3.4242,3.4244,3.4187,3.4179,3.4278,3.429,3.4302,3.4473,3.4326,3.4333,3.4338,3.4706,3.4712,3.4718,0,0,0,0,0,0,3.4006,3.4027,3.42,3.4117,3.4138,3.4149,3.4201,3.42,3.423,3.425,3.4251,3.4217,3.4275,3.4291,3.4403,3.4475,3.4337,3.4345,3.47,3.4708,3.4715,3.4817,0,0,0,0,0,0,3.3999,3.4026,3.4082,3.4119,3.4142,3.43,3.4205,3.4205,3.4244,3.4235,3.4278,3.4281,3.4272,3.4391,3.4411,3.4484,3.4351,3.4694,3.4704,3.4713,3.4807,3.4827,3.4845,0,0,0,0,0,3.3991,3.4108,3.4085,3.4107,3.4212,3.4304,3.4317,3.4305,3.4251,3.4306,3.4318,3.4279,3.4465,3.4403,3.4425,3.4502,3.4689,3.4701,3.4712,3.4799,3.4824,3.4844,0,0,0,0,0,0,3.408,3.4112,3.4087,3.422,3.4259,3.4291,3.4361,3.4332,3.4388,3.4377,3.4359,3.437,3.4487,3.4506,3.4437,3.4643,3.4568,3.4584,3.4627,3.465,3.4668,3.466,3.4358,0,0,0,0,0,3.4115,3.4187,3.4211,3.4325,3.4347,3.4351,3.439,3.4377,3.4418,3.4434,3.4455,3.4496,3.4563,3.4608,3.4671,3.481,3.4817,3.4874,3.4892,3.4907,3.4921,3.4993,3.5018,3.4756,3.4756,3.4755,0,0,3.4188,3.4214,3.4261,3.4344,3.4373,3.4447,3.4365,3.4448,3.4502,3.4447,3.4553,3.457,3.4615,3.4741,3.4797,3.476,3.4995,3.4922,3.4934,3.494,3.5008,3.5032,3.5054,3.4763,3.4762,3.4761,0,0,3.4358,3.4386,3.4483,3.4513,3.4558,3.456,3.4583,3.462,3.4628,3.4735,3.4694,3.4759,3.4875,3.4908,3.494,3.512,3.5085,3.5142,3.5238,3.5308,3.5329,3.5347,3.5409,3.5432,3.5156,3.5156,3.5156,0,3.4443,3.4553,3.4537,3.4621,3.4658,3.461,3.4708,3.4738,3.4802,3.4828,3.4786,3.4929,3.4956,3.5087,3.5131,3.516,3.5184,3.5136,3.5327,3.5345,3.5362,3.5421,3.5444,3.5162,3.5162,3.5161,3.516,0,3.4653,3.473,3.4803,3.4864,3.491,3.5001,3.4997,3.5045,3.5028,3.5033,3.5141,3.5172,3.5239,3.5269,3.5254,3.5398,3.5373,3.533,3.5253,3.5394,3.5448,3.5471,3.5171,3.5169,3.5167,3.5166,0,0,3.4883,3.4932,3.4959,3.4985,3.503,3.5089,3.5177,3.5242,3.5282,3.5327,3.5399,3.5498,3.5457,3.5494,3.5481,3.5544,3.5681,3.5492,3.5492,3.5524,3.5838,3.5869,3.5896,3.5659,3.5663,3.5666,3.5834,0,3.5053,3.5205,3.5192,3.5336,3.5405,3.536,3.5437,3.5472,3.548,3.554,3.5548,3.5617,3.556,3.5581,3.564,3.5652,3.5743,3.564,3.5724,3.5727,3.5712,3.5925,3.5958,3.6114,3.5855,3.5859,3.5862,0,3.5272,3.5323,3.5473,3.5506,3.5534,3.5603,3.566,3.5718,3.5757,3.5758,3.5798,3.5774,3.5861,3.5784,3.5903,3.5833,3.5866,3.5877,3.5883,3.5888,3.5802,3.5934,3.6164,3.6187,3.5896,3.5893,3.589,0,3.542,3.5527,3.563,3.5654,3.5695,3.5744,3.5764,3.5798,3.5837,3.5887,3.5911,3.5971,3.6004,3.605,3.6043,3.5988,3.6164,3.6086,3.6165,3.6166,3.6203,3.62,3.644,3.6229,3.6229,3.6228,3.6228,0,3.5611,3.5704,3.5697,3.576,3.5863,3.5847,3.5949,3.5962,3.5993,3.6057,3.6023,3.6084,3.6071,3.6132,3.6127,3.6225,3.6241,3.6243,3.624,3.6245,3.6244,3.6265,3.6253,3.6234,3.6233,3.6232,3.6231,0,3.5794,3.5793,3.5902,3.5931,3.5941,3.6015,3.6039,3.6098,3.6103,3.6184,3.6203,3.6209,3.6279,3.6276,3.6356,3.6352,3.6471,3.6457,3.6458,3.6454,3.6532,3.6524,3.6792,3.6825,3.6595,3.6597,3.6599,0,3.5914,3.5985,3.6021,3.6061,3.6083,3.6149,3.6187,3.6174,3.6216,3.6264,3.6317,3.6383,3.6435,3.6548,3.6559,3.6619,3.6604,3.6694,3.6613,3.6615,3.6603,3.6598,3.6603,3.671,3.6712,3.6714,3.6716,0,3.6127,3.6123,3.618,3.6237,3.6284,3.6328,3.6369,3.6404,3.6395,3.6443,3.6513,3.6553,3.6633,3.6698,3.6755,3.6774,3.6743,3.6742,3.6762,3.6767,3.6763,3.6763,3.6498,3.6735,3.6733,3.6732,3.6731,3.673,3.6281,3.634,3.6374,3.6438,3.6467,3.6505,3.6561,3.6572,3.6629,3.6692,3.6681,3.6759,3.6794,3.6867,3.6891,3.6951,3.6919,3.695,3.6958,3.6965,3.6972,3.6755,3.6962,3.6961,3.6961,3.696,3.696,0,3.649,3.6509,3.6568,3.6625,3.6675,3.6642,3.6684,3.6728,3.6796,3.6831,3.6882,3.6961,3.7024,3.704,3.7099,3.7144,3.7131,3.716,3.7155,3.716,3.6999,3.6973,3.7169,3.7169,3.7169,3.7169,3.7169,3.7169,3.6605,3.6702,3.6701,3.6812,3.683,3.6905,3.6932,3.6966,3.6994,3.7083,3.7134,3.7144,3.7171,3.7232,3.7287,3.729,3.7312,3.7346,3.7344,3.7193,3.7172,3.7151,3.7127,3.7352,3.7352,3.7499,3.75,3.7501]},{"header":{"parameterUnit":"m.s-1","parameterCategory":1,"la1":30.2991,"la2":30.254,"lo1":-89.0895,"lo2":-89.0444,"dy":0.0017,"dx":0.0017,"nx":28,"ny":28,"refTime":"2025-08-13T09:00:00:Z","depth":0,"parameterNumber":3,"parameterNumberName":"V-component_of_WINDS"},"data":[0,0,0,0,0,0,0,0,0,0,0,0,0,0,0,0,0,0,0,0,0,0,0,0,0,0,0,0,0,0,0,0,0,0,0,0,0,0,0,0,0,0,0,0,0,0,0,0,0,0,0,0,0,0,0,0,0,0,0.7556,0.7556,0,0.763,0.7631,0.7632,0.7643,0.7642,0.7642,0.7641,0.7718,0.772,0.7723,0,0,0,0,0,0,0,0,0,0,0,0,0,0.7422,0.7425,0.7555,0.7556,0.7557,0.763,0.7631,0.7632,0.7643,0.7642,0.7642,0.7641,0.7717,0.772,0.7723,0,0,0,0,0,0,0,0,0,0,0,0,0,0.7487,0.7425,0.7555,0.7572,0.7574,0.763,0.7631,0.7632,0.7643,0.7642,0.7641,0.764,0.7716,0.772,0.7724,0.7768,0,0,0.7736,0.7738,0,0,0,0,0,0,0,0,0.7483,0.7492,0.7568,0.7571,0.7573,0.7626,0.7612,0.7678,0.7644,0.7617,0.7641,0.764,0.7688,0.7694,0.7711,0.7772,0.7775,0.7736,0.7739,0.774,0.7742,0,0,0,0,0,0,0,0.7479,0.7488,0.7585,0.7569,0.7572,0.7575,0.7583,0.7624,0.7657,0.7619,0.762,0.7629,0.7689,0.7707,0.7712,0.7776,0.7736,0.774,0.7742,0.7744,0.7876,0.7877,0,0,0,0,0,0,0.7471,0.7485,0.7583,0.7587,0.7525,0.7578,0.7587,0.761,0.7657,0.7663,0.763,0.7629,0.77,0.7708,0.7715,0.7769,0.774,0.7744,0.7746,0.7875,0.7876,0.7877,0,0,0,0,0,0,0.7468,0.748,0.758,0.7536,0.7549,0.7582,0.7607,0.7612,0.763,0.7665,0.7671,0.7641,0.77,0.771,0.7755,0.7772,0.7746,0.775,0.7874,0.7875,0.7877,0.7879,0,0,0,0,0,0,0.7464,0.7479,0.7496,0.7537,0.7551,0.7618,0.7608,0.7614,0.7636,0.7636,0.7677,0.7683,0.77,0.7749,0.7759,0.7777,0.7753,0.7872,0.7874,0.7876,0.7877,0.788,0.7883,0,0,0,0,0,0.746,0.7495,0.7497,0.7509,0.7574,0.7619,0.7628,0.7646,0.7638,0.7655,0.7678,0.7682,0.7768,0.7753,0.7764,0.7785,0.7871,0.7874,0.7876,0.7876,0.788,0.7883,0,0,0,0,0,0,0.7457,0.75,0.7504,0.7553,0.7582,0.7621,0.7644,0.7649,0.7682,0.7681,0.7702,0.7711,0.7755,0.7774,0.7756,0.7829,0.7819,0.7824,0.7815,0.7819,0.7821,0.7816,0.7756,0,0,0,0,0,0.7461,0.7494,0.7531,0.757,0.7585,0.7612,0.7632,0.7643,0.7675,0.7687,0.7713,0.7743,0.7777,0.7799,0.7832,0.788,0.7888,0.7899,0.7902,0.7904,0.7908,0.7933,0.7938,0.7886,0.7886,0.7886,0,0,0.7472,0.75,0.752,0.757,0.7594,0.7627,0.7622,0.7658,0.7682,0.7693,0.7737,0.7756,0.7791,0.7837,0.7859,0.7855,0.7924,0.7907,0.7908,0.7911,0.7936,0.7941,0.7945,0.7887,0.7887,0.7887,0,0,0.7509,0.7533,0.7568,0.7592,0.7628,0.7645,0.7654,0.7691,0.7705,0.7749,0.7756,0.7786,0.7844,0.7868,0.7888,0.793,0.7935,0.7941,0.7955,0.7979,0.7984,0.7987,0.8002,0.8007,0.7944,0.7945,0.7945,0,0.7518,0.7568,0.7586,0.7621,0.7642,0.7652,0.7687,0.7709,0.7754,0.7768,0.7763,0.7835,0.7859,0.791,0.792,0.7936,0.7946,0.7937,0.7982,0.7985,0.7989,0.8003,0.8008,0.7945,0.7945,0.7945,0.7945,0,0.7577,0.7611,0.7635,0.7677,0.7701,0.7736,0.7759,0.7781,0.7789,0.7807,0.785,0.788,0.7918,0.7931,0.794,0.7983,0.7979,0.7977,0.7968,0.7994,0.8008,0.8013,0.7945,0.7945,0.7945,0.7945,0,0,0.7615,0.7665,0.7673,0.7692,0.7731,0.7758,0.7792,0.7829,0.7848,0.7878,0.7907,0.7954,0.7952,0.7975,0.7987,0.8008,0.8038,0.8003,0.8004,0.8008,0.8085,0.8086,0.8092,0.8041,0.8042,0.8043,0.8082,0,0.7655,0.7717,0.7733,0.7786,0.7817,0.7825,0.7855,0.7882,0.7899,0.7928,0.7946,0.7979,0.7975,0.7988,0.8009,0.803,0.8054,0.8027,0.8068,0.8069,0.8059,0.8099,0.8101,0.8136,0.8087,0.8088,0.8089,0,0.7712,0.7742,0.7797,0.783,0.7844,0.7871,0.7905,0.7932,0.7962,0.7973,0.7997,0.8006,0.8041,0.8029,0.8077,0.8059,0.8076,0.8088,0.809,0.8095,0.8081,0.8104,0.8148,0.8153,0.8098,0.8097,0.8096,0,0.7733,0.7787,0.7827,0.7843,0.7883,0.7901,0.7919,0.7948,0.7968,0.7998,0.8011,0.8045,0.8063,0.8088,0.8106,0.8095,0.8152,0.8142,0.8161,0.8161,0.8173,0.8172,0.822,0.8184,0.8184,0.8184,0.8184,0,0.7777,0.781,0.7837,0.7861,0.7898,0.7916,0.7952,0.7969,0.7995,0.8022,0.8032,0.8057,0.8079,0.8107,0.812,0.8157,0.8166,0.8175,0.8178,0.8174,0.8173,0.8186,0.8184,0.8186,0.8185,0.8185,0.8185,0,0.7807,0.7827,0.787,0.7904,0.7913,0.7939,0.7967,0.7991,0.8007,0.8042,0.8051,0.8076,0.8109,0.8129,0.8172,0.8181,0.8221,0.8224,0.8211,0.8213,0.8231,0.8228,0.8289,0.8297,0.8256,0.8256,0.8257,0,0.7833,0.7859,0.7895,0.7914,0.7931,0.7962,0.7982,0.8,0.8021,0.8055,0.8074,0.8108,0.8136,0.8189,0.8211,0.8243,0.8246,0.8264,0.8251,0.8245,0.8245,0.8243,0.8245,0.8267,0.8267,0.8268,0.8268,0,0.7878,0.7886,0.7915,0.7947,0.7971,0.7997,0.8024,0.8038,0.806,0.8083,0.8117,0.8138,0.818,0.8213,0.8247,0.8264,0.8269,0.8272,0.8278,0.8274,0.8265,0.8269,0.8217,0.827,0.827,0.827,0.827,0.827,0.7907,0.7929,0.7958,0.7989,0.801,0.8034,0.8057,0.8076,0.8104,0.814,0.8148,0.8183,0.8211,0.8256,0.8274,0.8301,0.8298,0.8307,0.831,0.8312,0.8312,0.8261,0.8308,0.8308,0.8308,0.8308,0.8307,0,0.7951,0.797,0.7998,0.8034,0.8058,0.806,0.8089,0.8109,0.814,0.8165,0.8192,0.8229,0.8261,0.8285,0.8317,0.8334,0.8337,0.8342,0.834,0.8344,0.8313,0.8304,0.8338,0.8338,0.8338,0.8338,0.8338,0.8338,0.7977,0.8015,0.8026,0.8073,0.8091,0.8126,0.8141,0.8163,0.8183,0.8224,0.825,0.8265,0.829,0.8323,0.8352,0.8358,0.8369,0.8373,0.8379,0.835,0.8347,0.8343,0.8335,0.8375,0.8375,0.8408,0.8408,0.8409]}]]